EW6230 Weather Reports


time (UTC)temp
C
wind
direction
speed
KPH
gust
KPH
rain 1hr
cm
rain 24hr
cm
rain mn
cm
humidity
%
barometer
mb
20260831121538 11 238 0.0 0.0 0.00 0.00 0.00 1 1011.6
20260831120034 11 238 0.0 0.0 0.00 0.00 0.00 1 1011.8
20260831114532 11 237 0.0 0.0 0.00 0.00 0.00 1 1011.9
20260831113024 11 237 0.0 0.0 0.00 0.00 0.00 1 1011.9
20260831111521 11 237 0.0 0.0 0.00 0.00 0.00 1 1012.1
20260831110015 11 238 0.0 0.0 0.00 0.00 0.00 1 1012.2
20260831104512 11 237 0.0 0.0 0.00 0.00 0.00 1 1012.3
20260831103005 11 238 0.0 0.0 0.00 0.00 0.00 1 1012.3
20260831101503 11 238 0.0 0.0 0.00 0.00 0.00 1 1012.3
20260831100104 11 237 0.0 0.0 0.00 0.00 0.00 1 1012.5
20260831094553 11 238 0.0 0.0 0.00 0.00 0.00 1 1012.7
20260831093053 11 237 0.0 0.0 0.00 0.00 0.00 1 1012.7
20260831091543 11 237 0.0 0.0 0.00 0.00 0.00 1 1012.8
20260831090044 11 237 0.0 0.0 0.00 0.00 0.00 1 1012.9
20260831084536 11 237 0.0 0.0 0.00 0.00 0.00 1 1013.2
20260831083031 11 238 0.0 0.0 0.00 0.00 0.00 1 1013.3
20260831081525 11 237 0.0 0.0 0.00 0.00 0.00 1 1013.4
20260831080021 11 237 0.0 0.0 0.00 0.00 0.00 1 1013.6
20260831074521 12 238 0.0 0.0 0.00 0.00 0.00 1 1013.6
20260831073012 12 237 0.0 0.0 0.00 0.00 0.00 1 1013.7
20260831071508 12 237 0.0 0.0 0.00 0.00 0.00 1 1013.8
20260831070005 12 237 0.0 0.0 0.00 0.00 0.00 1 1014.1
20260831064600 12 237 0.0 0.0 0.00 0.00 0.00 1 1014.2
20260831063054 12 237 0.0 0.0 0.00 0.00 0.00 1 1014.4
20260831061554 12 238 0.0 0.0 0.00 0.00 0.00 1 1014.3
20260831060050 12 237 0.0 0.0 0.00 0.00 0.00 1 1014.3
20260831054545 13 238 0.0 0.0 0.00 0.00 0.00 1 1014.3
20260831053039 13 238 0.0 0.0 0.00 0.00 0.00 1 1014.4
20260831051537 13 237 0.0 0.0 0.00 0.00 0.00 1 1014.4
20260831050027 13 237 0.0 0.0 0.00 0.00 0.00 1 1014.6
20260831044523 13 237 0.0 0.0 0.00 0.00 0.00 1 1014.8
20260831043018 14 238 0.0 0.0 0.00 0.00 0.00 1 1014.8
20260831041514 14 238 0.0 0.0 0.00 0.00 0.00 1 1014.9
20260831040010 15 237 0.0 0.0 0.00 0.00 0.00 1 1014.9
20260831034505 15 237 0.0 0.0 0.00 0.00 0.00 1 1014.8
20260831033002 15 237 0.0 0.0 0.00 0.00 0.00 2 1014.8
20260831031557 15 238 0.0 0.0 0.00 0.00 0.00 6 1014.8
20260831030053 15 238 0.0 0.0 0.00 0.00 0.00 8 1014.9
20260831024549 15 237 0.0 0.0 0.00 0.00 0.00 11 1014.9
20260831023045 15 238 0.0 0.0 0.00 0.00 0.00 17 1014.9
20260831021539 16 237 0.0 0.0 0.00 0.00 0.00 20 1014.9
20260831020038 16 238 0.0 0.0 0.00 0.00 0.00 24 1015.0
20260831014531 16 238 0.0 0.0 0.00 0.00 0.00 32 1015.2
20260831013026 16 237 0.0 0.0 0.00 0.00 0.00 35 1015.2
20260831011522 16 238 0.0 0.0 0.00 0.00 0.00 29 1015.3
20260831010017 16 238 0.0 1.6 0.00 0.00 0.00 34 1015.3
20260831004512 16 238 0.0 0.0 0.00 0.00 0.00 35 1015.3
20260831003006 16 237 0.0 0.0 0.00 0.00 0.00 42 1015.6
20260831001506 16 238 0.0 1.6 0.00 0.00 0.00 46 1015.8
20260831000111 17 279 0.0 0.0 0.00 0.00 0.00 52 1015.8
20260830234553 17 279 0.0 1.6 0.00 0.00 0.00 55 1015.9
20260830233049 17 73 0.0 1.6 0.00 0.00 0.00 59 1016.0
20260830231546 17 160 0.0 0.0 0.00 0.00 0.00 61 1016.1
20260830230040 17 160 0.0 1.6 0.00 0.00 0.00 61 1016.0
20260830224536 18 335 0.0 1.6 0.00 0.00 0.00 61 1016.2
20260830223030 18 335 0.0 1.6 0.00 0.00 0.00 63 1016.1
20260830221536 18 335 0.0 1.6 0.00 0.00 0.00 63 1016.1
20260830220022 18 329 0.0 1.6 0.00 0.00 0.00 63 1016.2
20260830214518 18 254 0.0 1.6 0.00 0.00 0.00 62 1016.3
20260830213013 18 254 0.0 1.6 0.00 0.00 0.00 61 1016.6
20260830211508 18 210 0.0 3.2 0.00 0.00 0.00 62 1016.6
20260830210007 18 50 0.0 1.6 0.00 0.00 0.00 63 1016.4
20260830204600 18 202 0.0 0.0 0.00 0.00 0.00 62 1016.4
20260830203057 18 227 0.0 4.8 0.00 0.00 0.00 62 1016.4
20260830201551 17 83 0.0 1.6 0.00 0.00 0.00 62 1016.3
20260830200047 17 105 0.0 3.2 0.00 0.00 0.00 62 1016.4
20260830194543 17 143 0.0 1.6 0.00 0.00 0.00 63 1016.4
20260830193038 17 359 0.0 0.0 0.00 0.00 0.00 63 1016.4
20260830191539 17 347 0.0 0.0 0.00 0.00 0.00 63 1016.5
20260830190032 17 352 0.0 0.0 0.00 0.00 0.00 63 1016.5
20260830184528 17 49 0.0 0.0 0.00 0.00 0.00 62 1016.5
20260830183022 16 49 0.0 0.0 0.00 0.00 0.00 62 1016.5
20260830181519 16 49 0.0 0.0 0.00 0.00 0.00 62 1016.5
20260830180014 17 44 0.0 0.0 0.00 0.00 0.00 62 1016.5
20260830174510 17 22 0.0 0.0 0.00 0.00 0.00 61 1016.6
20260830173008 17 347 0.0 0.0 0.00 0.00 0.00 63 1016.5
20260830171610 16 44 0.0 0.0 0.00 0.00 0.00 59 1016.5
20260830170055 16 55 0.0 0.0 0.00 0.00 0.00 56 1016.4
20260830164551 16 56 0.0 0.0 0.00 0.00 0.00 58 1016.4
20260830163046 15 5 0.0 0.0 0.00 0.00 0.00 51 1016.5
20260830161548 14 283 0.0 0.0 0.00 0.00 0.00 35 1016.5
20260830160037 13 283 0.0 0.0 0.00 0.00 0.00 36 1016.4
20260830154532 13 283 0.0 0.0 0.00 0.00 0.00 26 1016.5
20260830153030 12 283 0.0 0.0 0.00 0.00 0.00 11 1016.5
20260830151523 12 283 0.0 0.0 0.00 0.00 0.00 1 1016.4
20260830150020 11 284 0.0 0.0 0.00 0.00 0.00 1 1016.2
20260830144515 -17 0.0 0.0 0.00 0.00 0.00 1016.2
20260830143010 -17 0.0 0.0 0.00 0.00 0.00 1016.2
20260830141506 -17 0.0 0.0 0.00 0.00 0.00 1016.1
20260830140001 -17 0.0 0.0 0.00 0.00 0.00 1016.0
20260830134559 -17 0.0 0.0 0.00 0.00 0.00 1016.0
20260830133052 -17 0.0 0.0 0.00 0.00 0.00 1016.0
20260830131557 -17 0.0 0.0 0.00 0.00 0.00 1015.8
20260830130045 -17 0.0 0.0 0.00 0.00 0.00 1015.8
20260830124540 -17 0.0 0.0 0.00 0.00 0.00 1015.8
20260830123039 -17 0.0 0.0 0.00 0.00 0.00 1015.8